| time (UTC) | temp F | wind direction | speed knots | gust knots | rain 1hr in | rain 24hr in | rain mn in | humidity % | barometer mb |
| 20260504081707 | 55 | 245 | 0.9 | 2.6 | 0.00 | 0.00 | 0.00 | 83 | 1011.6 |
| 20260504081204 | 55 | 245 | 0.9 | 2.6 | 0.00 | 0.00 | 0.00 | 83 | 1011.6 |
| 20260504080704 | 55 | 245 | 0.9 | 1.7 | 0.00 | 0.00 | 0.00 | 83 | 1011.7 |
| 20260504080212 | 55 | 245 | 0.0 | 1.7 | 0.00 | 0.00 | 0.00 | 83 | 1011.6 |
| 20260504070205 | 55 | 243 | 0.9 | 2.6 | 0.00 | 0.00 | 0.00 | 82 | 1010.8 |
| 20260504060205 | 56 | 244 | 0.0 | 0.9 | 0.00 | 0.00 | 0.00 | 82 | 1010.2 |
| 20260504050714 | 56 | 227 | 0.0 | 1.7 | 0.00 | 0.00 | 0.00 | 82 | 1009.7 |
| 20260504050204 | 56 | 227 | 0.0 | 1.7 | 0.00 | 0.00 | 0.00 | 82 | 1009.6 |
| 20260504045704 | 56 | 227 | 0.0 | 1.7 | 0.00 | 0.00 | 0.00 | 82 | 1009.6 |
| 20260504045204 | 55 | 227 | 0.0 | 1.7 | 0.00 | 0.00 | 0.00 | 82 | 1009.4 |
| 20260504044705 | 55 | 227 | 0.0 | 1.7 | 0.00 | 0.00 | 0.00 | 82 | 1009.4 |
| 20260504044204 | 55 | 227 | 0.0 | 1.7 | 0.00 | 0.00 | 0.00 | 82 | 1009.5 |
| 20260504043704 | 55 | 227 | 0.0 | 1.7 | 0.00 | 0.00 | 0.00 | 83 | 1009.4 |
| 20260504043204 | 55 | 227 | 0.0 | 1.7 | 0.00 | 0.00 | 0.00 | 83 | 1009.4 |
| 20260504042705 | 55 | 227 | 0.0 | 1.7 | 0.00 | 0.00 | 0.00 | 83 | 1009.4 |
| 20260504042205 | 55 | 227 | 0.0 | 0.9 | 0.00 | 0.00 | 0.00 | 83 | 1009.4 |
| 20260504040704 | 55 | 216 | 0.0 | 0.9 | 0.00 | 0.00 | 0.00 | 83 | 1009.4 |
| 20260504040204 | 55 | 216 | 0.0 | 0.9 | 0.00 | 0.00 | 0.00 | 83 | 1009.4 |
| 20260504035704 | 55 | 216 | 0.0 | 1.7 | 0.00 | 0.00 | 0.00 | 83 | 1009.4 |
| 20260504035204 | 55 | 216 | 0.0 | 1.7 | 0.00 | 0.00 | 0.00 | 83 | 1009.4 |
| 20260504034704 | 55 | 216 | 0.0 | 1.7 | 0.00 | 0.00 | 0.00 | 83 | 1009.4 |
| 20260504034205 | 55 | 216 | 0.9 | 1.7 | 0.00 | 0.00 | 0.00 | 83 | 1009.5 |
| 20260504033704 | 55 | 216 | 0.0 | 1.7 | 0.00 | 0.00 | 0.00 | 83 | 1009.5 |
| 20260504033204 | 56 | 216 | 0.0 | 2.6 | 0.00 | 0.00 | 0.00 | 83 | 1009.6 |
| 20260504032704 | 56 | 216 | 0.0 | 2.6 | 0.00 | 0.00 | 0.00 | 83 | 1009.5 |
| 20260504031704 | 56 | 216 | 0.0 | 0.9 | 0.00 | 0.00 | 0.00 | 83 | 1009.5 |
| 20260504031204 | 56 | 216 | 0.0 | 0.9 | 0.00 | 0.00 | 0.00 | 83 | 1009.4 |
| 20260504030704 | 56 | 216 | 0.0 | 1.7 | 0.00 | 0.00 | 0.00 | 83 | 1009.4 |
| 20260504030204 | 56 | 216 | 0.0 | 1.7 | 0.00 | 0.00 | 0.00 | 83 | 1009.3 |
| 20260504025704 | 56 | 216 | 0.0 | 1.7 | 0.00 | 0.00 | 0.00 | 83 | 1009.3 |
| 20260504025205 | 56 | 216 | 0.0 | 2.6 | 0.00 | 0.00 | 0.00 | 83 | 1009.3 |
| 20260504024704 | 56 | 216 | 0.0 | 2.6 | 0.00 | 0.00 | 0.00 | 83 | 1009.2 |
| 20260504024204 | 56 | 216 | 0.0 | 2.6 | 0.00 | 0.00 | 0.00 | 83 | 1009.2 |
| 20260504023704 | 56 | 216 | 0.0 | 2.6 | 0.00 | 0.00 | 0.00 | 83 | 1009.2 |
| 20260504023205 | 56 | 217 | 0.9 | 2.6 | 0.00 | 0.00 | 0.00 | 83 | 1009.2 |
| 20260504022204 | 56 | 217 | 0.9 | 0.9 | 0.00 | 0.00 | 0.00 | 83 | 1009.1 |
| 20260504021704 | 56 | 217 | 0.0 | 0.9 | 0.00 | 0.00 | 0.00 | 83 | 1009.1 |
| 20260504021204 | 56 | 217 | 0.0 | 0.9 | 0.00 | 0.00 | 0.00 | 83 | 1009.1 |
| 20260504020705 | 56 | 217 | 0.0 | 0.9 | 0.00 | 0.00 | 0.00 | 83 | 1009.1 |
| 20260504015704 | 56 | 217 | 0.0 | 0.9 | 0.00 | 0.00 | 0.00 | 83 | 1009.2 |
| 20260504015205 | 56 | 217 | 0.0 | 1.7 | 0.00 | 0.00 | 0.00 | 83 | 1009.1 |
| 20260504014704 | 56 | 217 | 0.0 | 2.6 | 0.00 | 0.00 | 0.00 | 83 | 1009.1 |
| 20260504014205 | 56 | 217 | 0.0 | 3.5 | 0.00 | 0.00 | 0.00 | 83 | 1009.1 |
| 20260504013704 | 56 | 219 | 0.0 | 3.5 | 0.00 | 0.00 | 0.00 | 83 | 1009.1 |
| 20260504013204 | 56 | 219 | 0.0 | 3.5 | 0.00 | 0.00 | 0.00 | 83 | 1009.1 |
| 20260504012705 | 56 | 217 | 0.9 | 3.5 | 0.00 | 0.00 | 0.00 | 83 | 1009.1 |
| 20260504012205 | 57 | 217 | 0.9 | 3.5 | 0.00 | 0.00 | 0.00 | 83 | 1009.1 |
| 20260504011705 | 57 | 217 | 0.9 | 2.6 | 0.00 | 0.00 | 0.00 | 83 | 1009.1 |
| 20260504011205 | 57 | 216 | 0.9 | 2.6 | 0.00 | 0.00 | 0.00 | 83 | 1009.3 |
| 20260504010704 | 57 | 216 | 0.9 | 3.5 | 0.00 | 0.00 | 0.00 | 83 | 1009.2 |
| 20260504010204 | 57 | 216 | 0.9 | 4.3 | 0.00 | 0.00 | 0.00 | 82 | 1009.2 |
| 20260504005704 | 57 | 216 | 0.9 | 5.2 | 0.00 | 0.00 | 0.00 | 82 | 1009.1 |
| 20260504005204 | 57 | 228 | 0.9 | 5.2 | 0.00 | 0.00 | 0.00 | 82 | 1009.1 |
| 20260504004706 | 57 | 233 | 0.9 | 5.2 | 0.00 | 0.00 | 0.00 | 82 | 1009.0 |
| 20260504004207 | 57 | 217 | 1.7 | 3.5 | 0.00 | 0.00 | 0.00 | 82 | 1009.1 |
| 20260504003704 | 57 | 216 | 0.0 | 3.5 | 0.00 | 0.00 | 0.00 | 82 | 1009.0 |
| 20260504003204 | 57 | 216 | 0.9 | 3.5 | 0.00 | 0.00 | 0.00 | 82 | 1008.9 |
| 20260504002704 | 57 | 216 | 0.9 | 2.6 | 0.00 | 0.00 | 0.00 | 82 | 1008.7 |
| 20260504002205 | 57 | 216 | 0.9 | 3.5 | 0.00 | 0.00 | 0.00 | 82 | 1008.7 |
| 20260504001704 | 57 | 216 | 0.9 | 3.5 | 0.00 | 0.00 | 0.00 | 82 | 1008.8 |
| 20260504001204 | 57 | 214 | 0.9 | 2.6 | 0.00 | 0.00 | 0.00 | 82 | 1008.8 |
| 20260504000704 | 57 | 212 | 0.0 | 2.6 | 0.00 | 0.00 | 0.00 | 82 | 1008.9 |
| 20260504000204 | 58 | 212 | 0.0 | 2.6 | 0.00 | 0.00 | 0.00 | 81 | 1008.9 |
| 20260503235709 | 58 | 212 | 0.9 | 2.6 | 0.00 | 0.00 | 0.00 | 81 | 1008.8 |
| 20260503235204 | 58 | 240 | 0.9 | 4.3 | 0.00 | 0.00 | 0.00 | 81 | 1008.8 |
| 20260503234704 | 58 | 240 | 0.9 | 4.3 | 0.00 | 0.00 | 0.00 | 81 | 1008.9 |
| 20260503234206 | 58 | 240 | 0.0 | 4.3 | 0.00 | 0.00 | 0.00 | 81 | 1008.9 |
| 20260503233704 | 58 | 240 | 1.7 | 4.3 | 0.00 | 0.00 | 0.00 | 81 | 1008.9 |
| 20260503233204 | 58 | 214 | 0.0 | 4.3 | 0.00 | 0.00 | 0.00 | 81 | 1008.8 |
| 20260503232205 | 58 | 199 | 0.0 | 1.7 | 0.00 | 0.00 | 0.00 | 81 | 1008.8 |
| 20260503231704 | 58 | 173 | 0.0 | 2.6 | 0.00 | 0.00 | 0.00 | 81 | 1008.7 |
| 20260503231204 | 58 | 173 | 0.9 | 2.6 | 0.00 | 0.00 | 0.00 | 81 | 1008.8 |
| 20260503230705 | 58 | 173 | 0.0 | 2.6 | 0.00 | 0.00 | 0.00 | 81 | 1008.8 |
| 20260503230203 | 58 | 173 | 0.9 | 1.7 | 0.00 | 0.00 | 0.00 | 81 | 1008.8 |
| 20260503225707 | 58 | 172 | 0.0 | 2.6 | 0.00 | 0.00 | 0.00 | 80 | 1008.7 |
| 20260503225204 | 58 | 172 | 0.0 | 3.5 | 0.00 | 0.00 | 0.00 | 80 | 1008.7 |
| 20260503224207 | 58 | 173 | 0.9 | 3.5 | 0.00 | 0.00 | 0.00 | 80 | 1008.6 |
| 20260503223204 | 59 | 189 | 0.0 | 2.6 | 0.00 | 0.00 | 0.00 | 80 | 1008.6 |
| 20260503222204 | 59 | 186 | 1.7 | 3.5 | 0.00 | 0.00 | 0.00 | 80 | 1008.4 |
| 20260503221704 | 59 | 195 | 0.9 | 3.5 | 0.00 | 0.00 | 0.00 | 80 | 1008.5 |
| 20260503221204 | 59 | 195 | 0.0 | 3.5 | 0.00 | 0.00 | 0.00 | 79 | 1008.4 |
| 20260503220705 | 59 | 195 | 0.9 | 2.6 | 0.00 | 0.00 | 0.00 | 79 | 1008.5 |
| 20260503220204 | 59 | 193 | 0.9 | 2.6 | 0.00 | 0.00 | 0.00 | 79 | 1008.4 |
| 20260503215705 | 59 | 193 | 0.9 | 2.6 | 0.00 | 0.00 | 0.00 | 78 | 1008.4 |
| 20260503215205 | 59 | 193 | 0.9 | 2.6 | 0.00 | 0.00 | 0.00 | 78 | 1008.4 |
| 20260503214205 | 59 | 193 | 0.9 | 1.7 | 0.00 | 0.00 | 0.00 | 77 | 1008.4 |
| 20260503213704 | 60 | 193 | 0.0 | 1.7 | 0.00 | 0.00 | 0.00 | 77 | 1008.3 |
| 20260503213204 | 60 | 193 | 0.0 | 2.6 | 0.00 | 0.00 | 0.00 | 76 | 1008.3 |
| 20260503212705 | 60 | 193 | 0.9 | 2.6 | 0.00 | 0.00 | 0.00 | 76 | 1008.3 |
| 20260503212205 | 60 | 193 | 0.9 | 3.5 | 0.00 | 0.00 | 0.00 | 75 | 1008.4 |
| 20260503211714 | 60 | 193 | 0.0 | 3.5 | 0.00 | 0.00 | 0.00 | 75 | 1008.3 |
| 20260503211204 | 60 | 193 | 0.0 | 0.9 | 0.00 | 0.00 | 0.00 | 74 | 1008.1 |
| 20260503210704 | 60 | 195 | 0.0 | 1.7 | 0.00 | 0.00 | 0.00 | 74 | 1008.0 |
| 20260503205205 | 60 | 195 | 0.0 | 2.6 | 0.00 | 0.00 | 0.00 | 73 | 1007.9 |
| 20260503204205 | 60 | 195 | 0.0 | 0.9 | 0.00 | 0.00 | 0.00 | 72 | 1007.8 |
| 20260503203705 | 60 | 195 | 0.0 | 0.9 | 0.00 | 0.00 | 0.00 | 71 | 1007.8 |
| 20260503202206 | 61 | 195 | 0.0 | 0.9 | 0.00 | 0.00 | 0.00 | 70 | 1007.7 |
| 20260503201705 | 61 | 195 | 0.0 | 0.9 | 0.00 | 0.00 | 0.00 | 69 | 1007.5 |
| 20260503201205 | 61 | 195 | 0.0 | 1.7 | 0.00 | 0.00 | 0.00 | 69 | 1007.5 |
| 20260503200705 | 62 | 195 | 0.0 | 1.7 | 0.00 | 0.00 | 0.00 | 68 | 1007.4 |
| 20260503200204 | 62 | 195 | 0.0 | 1.7 | 0.00 | 0.00 | 0.00 | 68 | 1007.3 |
| 20260503195704 | 62 | 195 | 0.0 | 1.7 | 0.00 | 0.00 | 0.00 | 68 | 1007.3 |
| 20260503194704 | 62 | 195 | 0.0 | 1.7 | 0.00 | 0.00 | 0.00 | 67 | 1007.2 |
| 20260503194208 | 62 | 195 | 0.0 | 1.7 | 0.00 | 0.00 | 0.00 | 67 | 1007.1 |
| 20260503193704 | 62 | 195 | 0.0 | 1.7 | 0.00 | 0.00 | 0.00 | 66 | 1007.2 |
| 20260503193203 | 62 | 195 | 0.0 | 2.6 | 0.00 | 0.00 | 0.00 | 66 | 1007.2 |
| 20260503192704 | 63 | 195 | 0.0 | 2.6 | 0.00 | 0.00 | 0.00 | 66 | 1007.1 |
| 20260503192204 | 63 | 195 | 0.0 | 2.6 | 0.00 | 0.00 | 0.00 | 65 | 1007.0 |
| 20260503191704 | 63 | 195 | 0.0 | 1.7 | 0.00 | 0.00 | 0.00 | 64 | 1007.0 |
| 20260503191204 | 63 | 195 | 0.0 | 1.7 | 0.00 | 0.00 | 0.00 | 64 | 1007.0 |
| 20260503185704 | 64 | 195 | 0.0 | 0.9 | 0.00 | 0.00 | 0.00 | 64 | 1006.8 |
| 20260503185204 | 64 | 195 | 0.0 | 1.7 | 0.00 | 0.00 | 0.00 | 64 | 1006.7 |
| 20260503184706 | 64 | 195 | 0.0 | 1.7 | 0.00 | 0.00 | 0.00 | 64 | 1006.7 |
| 20260503184204 | 64 | 195 | 0.0 | 1.7 | 0.00 | 0.00 | 0.00 | 64 | 1006.6 |
| 20260503183704 | 64 | 195 | 0.0 | 1.7 | 0.00 | 0.00 | 0.00 | 64 | 1006.6 |
| 20260503183205 | 64 | 195 | 0.0 | 2.6 | 0.00 | 0.00 | 0.00 | 64 | 1006.4 |
| 20260503182704 | 64 | 195 | 0.0 | 2.6 | 0.00 | 0.00 | 0.00 | 63 | 1006.5 |
| 20260503182205 | 65 | 195 | 0.0 | 2.6 | 0.00 | 0.00 | 0.00 | 63 | 1006.3 |
| 20260503181204 | 65 | 195 | 0.9 | 2.6 | 0.00 | 0.00 | 0.00 | 63 | 1006.4 |
| 20260503180705 | 65 | 195 | 0.9 | 2.6 | 0.00 | 0.00 | 0.00 | 63 | 1006.3 |
| 20260503180205 | 65 | 195 | 0.9 | 2.6 | 0.00 | 0.00 | 0.00 | 64 | 1006.2 |
| 20260503175705 | 65 | 196 | 0.9 | 3.5 | 0.00 | 0.00 | 0.00 | 64 | 1006.2 |
| 20260503175204 | 65 | 196 | 0.9 | 3.5 | 0.00 | 0.00 | 0.00 | 64 | 1006.3 |
| 20260503174705 | 65 | 197 | 1.7 | 3.5 | 0.00 | 0.00 | 0.00 | 64 | 1006.2 |
| 20260503174204 | 66 | 173 | 0.9 | 4.3 | 0.00 | 0.00 | 0.00 | 64 | 1006.3 |
| 20260503173704 | 66 | 202 | 0.9 | 4.3 | 0.00 | 0.00 | 0.00 | 63 | 1006.2 |
| 20260503173204 | 66 | 179 | 1.7 | 3.5 | 0.00 | 0.00 | 0.00 | 63 | 1006.3 |
| 20260503172705 | 66 | 137 | 1.7 | 3.5 | 0.00 | 0.01 | 0.00 | 62 | 1006.2 |
| 20260503172205 | 66 | 175 | 0.9 | 3.5 | 0.00 | 0.01 | 0.00 | 62 | 1006.2 |
| 20260503171704 | 66 | 171 | 0.9 | 3.5 | 0.00 | 0.01 | 0.00 | 62 | 1006.2 |
| 20260503171204 | 66 | 245 | 0.9 | 5.2 | 0.00 | 0.01 | 0.00 | 62 | 1006.2 |
| 20260503170704 | 66 | 241 | 0.9 | 5.2 | 0.00 | 0.01 | 0.00 | 62 | 1006.2 |
| 20260503170204 | 66 | 247 | 1.7 | 6.1 | 0.00 | 0.01 | 0.00 | 61 | 1006.2 |
| 20260503160205 | 66 | 243 | 0.9 | 5.2 | 0.00 | 0.01 | 0.00 | 61 | 1006.2 |
| 20260503150704 | 68 | 165 | 1.7 | 8.7 | 0.00 | 0.01 | 0.00 | 59 | 1006.3 |
| 20260503150204 | 68 | 238 | 2.6 | 6.1 | 0.00 | 0.01 | 0.00 | 57 | 1006.3 |
| 20260503130704 | 67 | 261 | 3.5 | 9.6 | 0.00 | 0.01 | 0.00 | 62 | 1006.7 |
| 20260503120204 | 65 | 258 | 2.6 | 7.8 | 0.00 | 0.01 | 0.00 | 66 | 1006.8 |
| 20260503110704 | 65 | 247 | 1.7 | 5.2 | 0.00 | 0.01 | 0.00 | 65 | 1007.0 |
| 20260503110204 | 65 | 224 | 1.7 | 4.3 | 0.00 | 0.01 | 0.00 | 66 | 1007.0 |
| 20260503100204 | 65 | 217 | 1.7 | 5.2 | 0.00 | 0.01 | 0.00 | 67 | 1007.0 |
| 20260503090205 | 60 | 206 | 3.5 | 7.8 | 0.00 | 0.01 | 0.00 | 76 | 1007.3 |